View from above orbital plane
|
View from above satellite
|
Ground track
|
The orbit data is extracted from the following two-line orbital elements,
1 17567U 87024B 22224.78353634 .00000227 00000-0 24408-4 0 9991
2 17567 82.5264 236.7081 0017546 253.3823 106.5466 14.83967052894544
Epoch (UTC): | 12 August 2022 18:48:17 |
Eccentricity: | 0.0017546 |
inclination: | 82.5264° |
perigee height: | 604 km |
apogee height: | 629 km |
right ascension of ascending node: | 236.7081° |
argument of perigee: | 253.3823° |
revolutions per day: | 14.83967052 |
mean anomaly at epoch: | 106.5466° |
orbit number at epoch: | 89454 |
The dashed part of the orbit path shows where the satellite is in the earth's shadow,
|
|